World > North America > United States > Mississippi > Amistead  

Amistead, MS Hourly Weather Updates

Feedback E-mail the Weather

Quick Clicks

Amistead, MS Weather Maps

°F °C°F °C
Amistead Weather Map
UTC Time: 4/21/2024, 21:09
Your Time:

Amistead, MS Regional Weather

Expires:202404212100;;147137
ASUS44 KJAN 212010
RWRMS 

MISSISSIPPI HOURLY WEATHER ROUNDUP
NATIONAL WEATHER SERVICE JACKSON MS
300 PM CDT SUN APR 21 2024

NOTE: "FAIR: INDICATES FEW OR NO CLOUDS BELOW 12,000 FEET WITH NO
SIGNIFICANT WEATHER AND/OR OBSTRUCTIONS TO VISIBILITY.


MSZ001>002-007>008-010>013-018>021-025>028-034>036-212100-
NORTHWEST MISSISSIPPI
  
CITY           SKY/WX    TMP DP  RH WIND       PRES   REMARKS
CLARKSDALE       N/A     61 N/A N/A NW13G22   30.22F                  
GREENWOOD      SUNNY     64  42  44 N14G22    30.18F                  
GREENVILLE     SUNNY     64  43  46 N13G21    30.21F                  
OLIVE BRANCH   SUNNY     59  32  36 NW14G21   30.20F                  
OXFORD         MOSUNNY   63  32  31 N9G23     30.19F                  
TUNICA         CLOUDY    61  38  41 N20       30.22F                  
$$


SKY/WX - Weather  TMP - Temperature  DP - Dew Point  RH - Humidity
WIND - Wind Direction/Speed PRES - Barometric Pressure VSB - Visibility
WCI - Wind Chill Index E13G22 Wind - East Wind 13 mph/Gusts of 22 mph

Trending Headlines

Trending Entertainment Headlines

Amistead Radar Loop

Use the map search tool if you want to place a location marker on the radar map...

Amistead Quick Facts

National Two Day Weather Forecast


E-mail the Amistead Weather Forecast

Voice your opinion or tell us about page issues...